Regional Weather Roundup
Issued by NWS

Home | Current Version | Previous Version | Text Only | Print | Product List | Glossary On
Versions: 1 2 3 4 5 6 7 8 9 10 11 12 13 14 15 16 17 18 19 20 21 22 23 24 25 26 27 28 29 30 31 32 33 34 35 36 37 38 39 40 41 42 43 44 45 46 47 48 49 50
000
ASUS43 KMPX 162210
RWRMN
WEATHER ROUNDUP FOR MINNESOTA
NATIONAL WEATHER SERVICE TWIN CITIES/CHANHASSEN MN
500 PM CDT MON OCT 16 2017


NOTE: "FAIR" INDICATES FEW OR NO CLOUDS BELOW 12,000 FEET WITH NO
SIGNIFICANT WEATHER AND/OR OBSTRUCTIONS TO VISIBILITY. N/A MEANS
CURRENT SKY AND/OR WEATHER CONDITIONS ARE NOT AVAILABLE.

MNZ060>063-068>070-162300-
   Twin Cities Metro

CITY           SKY/WX    TMP DP  RH WIND       PRES   REMARKS
TWIN CITIES    MOSUNNY   66  36  32 S9G18     30.03F
ST PAUL        SUNNY     64  38  38 S9        30.04F
CRYSTAL        SUNNY     65  34  31 S12       30.01F
BLAINE         MOSUNNY   66  37  34 S12G17    30.02F
LAKEVILLE      SUNNY     64  37  36 S7        30.04F
EDEN PRAIRIE   SUNNY     66  36  32 S10       30.02F
SOUTH ST PAUL  SUNNY     65  35  31 S9        30.03F
LAKE ELMO      FAIR      63  37  39 S8        30.05F
$$
MNZ001>005-007-008-013>017-022>024-027-028-162300-
   Northwest Minnesota

CITY           SKY/WX    TMP DP  RH WIND       PRES   REMARKS
BEMIDJI        SUNNY     64  37  37 SW14G21   29.86S
HALLOCK        CLOUDY    68  34  28 W17       29.78F
ROSEAU           N/A     64  39  39 SW9G16    29.78R
WARROAD        CLOUDY    64  39  39 W14G22    29.77S
THIEF RVR FALL SUNNY     68  35  29 W20G28    29.83R
CROOKSTON      SUNNY     70  36  28 W23       29.83S
FOSSTON        SUNNY     66  34  30 SW17G25   29.85S
DETROIT LAKES  SUNNY     68  36  30 SW13      29.89S
MOORHEAD       SUNNY     70  37  30 SW13      29.87S
PARK RAPIDS    SUNNY     64  39  39 SW15G24   29.88F
MAHNOMEN       FAIR      67  37  34 SW17G24   29.86S
$$
MNZ006-009>011-018-025>026-162300-
   North Central Minnesota

CITY           SKY/WX    TMP DP  RH WIND       PRES   REMARKS
BAUDETTE       CLOUDY    64  36  35 SW17G28   29.78S
FLAG ISLAND    SUNNY     63  36  36 SW17      29.73S
INTL FALLS     SUNNY     62  34  35 SW17G26   29.79F
WASKISH        SUNNY     63  39  42 SW14      29.82S
BIG FORK       SUNNY     63  36  36 S15G23    29.85F
LONGVILLE      SUNNY     63  34  34 S12G21    29.89F
GRAND RAPIDS   MOSUNNY   61  34  36 S16G23    29.90F
CRANE LAKE     SUNNY     59  32  36 S9G18     29.85F
ORR            SUNNY     61  28  29 S13G26    29.83F
COOK           SUNNY     59  34  38 S10G20    29.87F
WALKER         FAIR      63  36  37 SW16G28   29.87F
$$
MNZ012-019>021-037-162300-
   Northeast Minnesota

CITY           SKY/WX    TMP DP  RH WIND       PRES   REMARKS
DULUTH         MOSUNNY   58  34  40 SW21G26   29.95F
ELY            SUNNY     57  30  35 SW10G21   29.88F
HIBBING        CLOUDY    59  32  36 S10G20    29.89F
EVELETH        SUNNY     59  23  25 SW17      29.90F
DULUTH HARBOR  SUNNY     63  37  39 SW18      29.95F
TWO HARBORS    MOSUNNY   61  41  48 S12G20    29.92F
GRAND MARAIS     N/A     53  47  79 SW12      29.94F
G MARAIS ARPRT SUNNY     48  36  61 S12G18    29.94F
$$
MNZ029>031-032-039>041-046>048-054>057-064-162300-
   West Central Minnesota

CITY           SKY/WX    TMP DP  RH WIND       PRES   REMARKS
FERGUS FALLS   SUNNY     70  39  32 SW14G21   29.90F
WHEATON        SUNNY     68  32  26 SW14      29.93F
MORRIS         SUNNY     70  39  32 SW9       29.93F
ALEXANDRIA     SUNNY     66  38  35 SW15G23   29.95F
ELBOW LAKE     FAIR      68  38  33 W14       29.92F
WADENA         SUNNY     64  39  39 SW12      29.91F
GLENWOOD       SUNNY     66  37  34 SW13      29.96F
APPLETON       SUNNY     72  34  25 SW8       29.95F
BENSON         SUNNY     70  36  28 W13G18    29.97F
ORTONVILLE     SUNNY     68  36  30 NW7       29.95F
MADISON        SUNNY     73  36  25 SW10      29.96F
WILLMAR        FAIR      70  37  30 SW9       29.99F
$$
MNZ033>034-036-042>043-049>051-058-059-162300-
   Central Minnesota

CITY           SKY/WX    TMP DP  RH WIND       PRES   REMARKS
ST CLOUD       SUNNY     65  38  36 S12       29.97F
SAUK CENTRE    FAIR      65  39  37 SW15      29.96F
PAYNESVILLE    SUNNY     67  38  33 S12       29.98F
AITKIN         SUNNY     61  34  36 S18       29.91F
PINE RIVER     SUNNY     61  37  41 S15G21    29.94F
BRAINERD       SUNNY     62  36  37 S16       29.94F
STAPLES        SUNNY     64  36  34 S13G18    29.93F
LONG PRAIRIE   FAIR      63  37  39 S8        29.96S
LITTLE FALLS   SUNNY     63  28  27 S9        29.96F
LITCHFIELD     SUNNY     66  37  34 S5        29.99F
BUFFALO        SUNNY     66  34  30 S8        30.01F
MAPLE LAKE     SUNNY     68  39  34 S7G20     30.00F
HUTCHINSON     CLOUDY    69  38  31 S8G16     30.01F
$$
MNZ037-044-045-052-053-162300-
   East Central Minnesota

CITY           SKY/WX    TMP DP  RH WIND       PRES   REMARKS
PRINCETON      SUNNY     66  37  34 S9        29.99F
MORA           SUNNY     59  34  38 S12G17    30.01F
CAMBRIDGE      SUNNY     66  45  45 S13       30.00F
RUSH CITY      SUNNY     61  37  39 S8        30.01F
MOOSE LAKE     SUNNY     61  34  36 S14       29.95F
HINCKLEY       FAIR      61  37  41 S12       29.99F
CLOQUET        SUNNY     61  30  31 S15G23    29.95F
MCGREGOR       SUNNY     61  36  39 S17G23    29.94F
$$
MNZ071>073-080-081-089-090-097-098-162300-
   Southwest Minnesota

CITY           SKY/WX    TMP DP  RH WIND       PRES   REMARKS
MONTEVIDEO     SUNNY     73  36  25 W9        29.98S
GRANITE FALLS  SUNNY     72  38  29 SW13G20   30.00F
CANBY          SUNNY     70  37  29 SW7       29.99S
MARSHALL       SUNNY     71  37  28 SW15      29.98F
REDWOOD FALLS  SUNNY     70  34  26 SW12      29.99F
OLIVIA         SUNNY     70  37  30 S12       29.99F
PIPESTONE      SUNNY     72  36  26 SW15      30.01S
WORTHINGTON    SUNNY     70  36  28 SW15G24   30.04F
JACKSON        SUNNY     68  32  26 SW16G22   30.05F
TRACY          SUNNY     70  38  31 SW16      30.00F
SLAYTON        SUNNY     68  36  30 S18G25    30.02F
$$
MNZ065>067-074>077-082>085-091>093-162300-
   South Central Minnesota

CITY           SKY/WX    TMP DP  RH WIND       PRES   REMARKS
MANKATO        SUNNY     68  34  28 SW12G23   30.04F
NEW ULM        SUNNY     68  36  30 S8G17     30.02F
ST JAMES       SUNNY     70  34  26 S16       30.04F
FAIRMONT       SUNNY     69  36  29 SW20      30.04
GLENCOE        SUNNY     69  35  29 S10G16    30.01F
FARIBAULT      SUNNY     66  36  32 S9G17     30.06F
OWATONNA       SUNNY     66  37  34 SW12G21   30.07F
WASECA         SUNNY     64  32  29 S12G18    30.07F
ALBERT LEA     SUNNY     70  36  28 S9        30.09F
$$
MNZ078>079-086>088-094>096-162300-
   Southeast Minnesota

CITY           SKY/WX    TMP DP  RH WIND       PRES   REMARKS
ROCHESTER      SUNNY     63  38  39 SW16      30.11F
RED WING       SUNNY     66  28  24 SW12      30.05F
STANTON        SUNNY     67  35  30 SW10      30.04F
DODGE CENTER   SUNNY     64  32  29 SW9       30.09F
WINONA         SUNNY     64  32  29 W6        30.11F
AUSTIN         SUNNY     64  34  32 SW16      30.10F
PRESTON        SUNNY     63  32  32 SW12      30.12F
$$
ABBREVIATIONS USED IN REMARKS
   TC - TEMPERATURES IN CELSIUS
  WCI - WIND CHILL INDEX
   HX - HEAT INDEX
  VSB - VISIBILITY
$$




USA.gov is the U.S. government's official web portal to all federal, state and local government web resources and services.